View from above orbital plane
|
View from above satellite
|
Ground track
|
The orbit data is extracted from the following two-line orbital elements,
1 00694U 63047A 13144.14561880 .00002263 00000-0 29485-3 0 2240
2 00694 030.3589 034.7913 0604845 139.7619 352.2672 13.97920779474386
| Epoch (UTC): | 24 May 2013 03:29:41 |
| Eccentricity: | 0.0604845 |
| inclination: | 30.3589° |
| perigee height: | 461 km |
| apogee height: | 1341 km |
| right ascension of ascending node: | 34.7913° |
| argument of perigee: | 139.7619° |
| revolutions per day: | 13.97920779 |
| mean anomaly at epoch: | 352.2672° |
| orbit number at epoch: | 47438 |
The dashed part of the orbit path shows where the satellite is in the earth's shadow,
|
|